Retour au catalogue

STARLINK-37254

ActifCommunicationsVLEO
NORAD 68553·PAYLOAD·🇺🇸 United States

Lancé Apr 2, 2026 depuis Cape Canaveral Space Force Station

Loading…

Prochains Passages (prochaines 24 heures)

TLE

FraisSource: CelesTrak SupGP

Époque: Sep 14, 2026, 22:43 UTC

1 68553C 26070M   26257.94701389 -.00016963  00000+0 -50101-3 0  2578
2 68553  53.1574 199.6361 0001286  93.8352 328.9705 15.34408844    12

Suivez STARLINK-37254 en temps réel avec AllMySat

Download on the App Store